Location: Newark
(7.0858°N, 171.3717°E)
Time: 06:11:24
(UTC+00:00)

Courier 1B Rocket - Pass Details

Date: 03 December 2020
Orbit: 920 x 1202 km, 28.2° (Epoch: 20 January)

Event Time Altitude Azimuth Distance (km) Brightness Sun altitude
Rises 23:30:18 0° 295° (WNW) 4,006 8.0 57.8°
Reaches altitude 10° 23:33:11 10° 294° (WNW) 3,011 7.4 58.1°
Maximum altitude 23:40:35 72° 210° (SSW) 1,126 6.9 58.7°
Drops below altitude 10° 23:47:26 10° 127° (SE) 2,802 7.9 59.3°
Sets 23:50:02 0° 125° (SE) 3,714 8.4 59.4°
